QPF
0.01 0.01 0.02 0.02 0.03 0.04 0.05 0.04 0.02 0.02 0.01 0.01 0.01 0.00 0.01 0.00 0.00 0.00 0.00 0.01 0.02 0.04 0.06 0.07 0.06 0.06 0.05 0.05 0.04 0.03 0.02 0.02 0.02 0.02 0.01 0.01 0.01 0.01 0.01 0.01 0.01 0.01 0.01
0.01 0.01 0.02 0.03 0.04 0.05 0.05 0.05 0.04 0.04 0.02 0.02 0.02 0.02 0.02 0.01 0.00 0.00 0.00 0.01 0.02 0.03 0.05 0.06 0.07 0.06 0.06 0.06 0.06 0.05 0.04 0.03 0.03 0.03 0.03 0.02 0.02 0.02 0.01 0.01 0.01 0.01 0.01
0.01 0.02 0.03 0.04 0.06 0.07 0.07 0.07 0.07 0.05 0.03 0.03 0.03 0.02 0.02 0.02 0.01 0.01 0.01 0.02 0.02 0.02 0.03 0.04 0.06 0.06 0.06 0.06 0.06 0.05 0.05 0.04 0.04 0.04 0.04 0.04 0.03 0.03 0.02 0.02 0.02 0.02 0.01
0.02 0.03 0.06 0.08 0.10 0.11 0.11 0.10 0.10 0.09 0.07 0.06 0.05 0.03 0.02 0.02 0.02 0.01 0.01 0.01 0.02 0.03 0.03 0.03 0.04 0.05 0.05 0.06 0.07 0.07 0.08 0.08 0.08 0.07 0.06 0.06 0.05 0.04 0.03 0.02 0.02 0.03 0.02
0.07 0.11 0.15 0.15 0.14 0.13 0.15 0.15 0.14 0.12 0.12 0.10 0.06 0.04 0.03 0.03 0.03 0.02 0.01 0.01 0.02 0.02 0.02 0.02 0.01 0.02 0.02 0.04 0.05 0.09 0.11 0.11 0.10 0.08 0.07 0.06 0.05 0.05 0.04 0.04 0.04 0.03 0.03
0.15 0.15 0.13 0.13 0.17 0.21 0.20 0.18 0.17 0.15 0.14 0.12 0.09 0.06 0.05 0.04 0.03 0.02 0.02 0.01 0.01 0.01 0.01 0.01 0.02 0.02 0.02 0.02 0.04 0.06 0.08 0.09 0.10 0.08 0.07 0.07 0.05 0.04 0.04 0.04 0.03 0.04 0.04
0.18 0.20 0.21 0.21 0.22 0.23 0.22 0.22 0.21 0.18 0.16 0.13 0.11 0.09 0.07 0.04 0.03 0.03 0.03 0.02 0.01 0.01 0.01 0.01 0.01 0.02 0.02 0.01 0.01 0.01 0.02 0.03 0.05 0.05 0.05 0.06 0.05 0.05 0.05 0.04 0.04 0.03 0.03
0.30 0.32 0.32 0.31 0.29 0.28 0.28 0.25 0.21 0.18 0.17 0.15 0.13 0.11 0.09 0.06 0.04 0.03 0.03 0.02 0.02 0.01 0.01 0.00 0.00 0.00 0.00 0.00 0.00 0.00 0.01 0.01 0.02 0.03 0.05 0.05 0.05 0.05 0.04 0.04 0.04 0.04 0.03
0.35 0.34 0.35 0.33 0.33 0.32 0.29 0.24 0.20 0.17 0.15 0.12 0.09 0.09 0.11 0.10 0.06 0.03 0.02 0.01 0.01 0.01 0.00 0.00 0.00 0.00 0.00 0.00 0.00 0.01 0.01 0.01 0.01 0.02 0.03 0.04 0.05 0.06 0.06 0.06 0.06 0.05 0.04
0.34 0.30 0.29 0.30 0.30 0.27 0.24 0.20 0.17 0.16 0.14 0.12 0.10 0.09 0.09 0.08 0.06 0.04 0.02 0.01 0.00 0.00 0.00 0.00 0.00 0.00 0.00 0.00 0.00 0.00 0.00 0.00 0.01 0.01 0.01 0.02 0.03 0.04 0.05 0.06 0.08 0.08 0.07
0.27 0.25 0.24 0.24 0.27 0.25 0.21 0.17 0.15 0.13 0.11 0.10 0.09 0.08 0.07 0.06 0.05 0.04 0.03 0.02 0.01 0.00 0.00 0.00 0.00 0.00 0.00 0.00 0.00 0.00 0.00 0.00 0.00 0.00 0.00 0.01 0.01 0.02 0.03 0.05 0.07 0.10 0.11
0.22 0.21 0.18 0.17 0.15 0.12 0.10 0.09 0.08 0.06 0.05 0.04 0.04 0.04 0.05 0.05 0.05 0.04 0.03 0.02 0.01 0.00 0.00 0.00 0.00 0.00 0.00 0.00 0.00 0.00 0.00 0.00 0.00 0.00 0.00 0.00 0.00 0.00 0.01 0.01 0.03 0.04 0.06
0.15 0.13 0.12 0.10 0.07 0.04 0.03 0.03 0.02 0.02 0.02 0.02 0.02 0.02 0.02 0.01 0.01 0.01 0.01 0.01 0.01 0.00 0.00 0.00 0.00 0.00 0.00 0.00 0.00 0.00 0.00 0.00 0.00 0.00 0.00 0.00 0.00 0.00 0.00 0.01 0.01 0.01 0.02
0.09 0.07 0.06 0.05 0.03 0.02 0.02 0.01 0.01 0.02 0.01 0.01 0.01 0.01 0.01 0.01 0.00 0.00 0.00 0.00 0.00 0.00 0.00 0.00 0.00 0.00 0.00 0.00 0.00 0.00 0.00 0.00 0.00 0.00 0.00 0.00 0.00 0.00 0.00 0.00 0.00 0.00 0.00
0.05 0.04 0.03 0.02 0.01 0.01 0.01 0.01 0.01 0.01 0.01 0.01 0.01 0.00 0.00 0.00 0.00 0.00 0.00 0.00 0.00 0.00 0.00 0.00 0.00 0.00 0.00 0.00 0.00 0.00 0.00 0.00 0.00 0.00 0.00 0.00 0.00 0.00 0.00 0.00 0.00 0.00 0.00
0.02 0.02 0.02 0.02 0.01 0.01 0.01 0.01 0.01 0.01 0.00 0.00 0.00 0.00 0.00 0.00 0.00 0.00 0.00 0.00 0.00 0.00 0.00 0.00 0.00 0.00 0.00 0.00 0.00 0.00 0.00 0.00 0.00 0.00 0.00 0.00 0.00 0.00 0.00 0.00 0.00 0.00 0.00
0.02 0.02 0.02 0.02 0.02 0.02 0.02 0.01 0.01 0.01 0.01 0.00 0.00 0.00 0.00 0.00 0.00 0.00 0.00 0.00 0.00 0.00 0.01 0.00 0.00 0.00 0.01 0.01 0.00 0.00 0.00 0.00 0.00 0.00 0.00 0.00 0.00 0.00 0.00 0.00 0.00 0.00 0.00
0.01 0.01 0.02 0.02 0.02 0.01 0.01 0.01 0.01 0.01 0.01 0.00 0.00 0.00 0.00 0.00 0.00 0.00 0.00 0.01 0.01 0.01 0.01 0.01 0.01 0.01 0.01 0.01 0.01 0.01 0.00 0.00 0.00 0.00 0.00 0.00 0.00 0.00 0.00 0.00 0.00 0.00 0.00
0.00 0.01 0.01 0.00 0.00 0.00 0.00 0.00 0.00 0.00 0.00 0.00 0.00 0.00 0.00 0.00 0.01 0.01 0.01 0.01 0.02 0.01 0.02 0.02 0.01 0.01 0.01 0.01 0.01 0.01 0.01 0.02 0.01 0.00 0.00 0.00 0.00 0.00 0.00 0.00 0.00 0.00 0.00
0.01 0.00 0.00 0.00 0.00 0.00 0.00 0.00 0.00 0.00 0.00 0.00 0.00 0.00 0.00 0.01 0.01 0.02 0.02 0.03 0.03 0.03 0.03 0.03 0.02 0.02 0.01 0.01 0.02 0.02 0.01 0.01 0.01 0.01 0.01 0.01 0.01 0.00 0.00 0.00 0.00 0.00 0.00
0.00 0.00 0.00 0.00 0.00 0.00 0.00 0.00 0.00 0.00 0.00 0.00 0.00 0.00 0.00 0.00 0.01 0.01 0.01 0.02 0.03 0.04 0.03 0.03 0.02 0.02 0.02 0.03 0.03 0.03 0.02 0.02 0.01 0.02 0.03 0.02 0.02 0.02 0.03 0.02 0.01 0.00 0.00
0.00 0.00 0.00 0.00 0.00 0.00 0.00 0.00 0.00 0.00 0.00 0.00 0.00 0.00 0.00 0.00 0.00 0.00 0.00 0.01 0.01 0.02 0.02 0.03 0.03 0.03 0.03 0.04 0.05 0.04 0.04 0.04 0.03 0.03 0.03 0.02 0.02 0.03 0.04 0.03 0.01 0.00 0.00
0.00 0.00 0.00 0.00 0.00 0.00 0.00 0.00 0.00 0.00 0.00 0.00 0.00 0.01 0.01 0.01 0.01 0.02 0.01 0.01 0.02 0.01 0.01 0.02 0.04 0.05 0.05 0.06 0.06 0.04 0.05 0.05 0.04 0.04 0.05 0.03 0.03 0.04 0.02 0.01 0.00 0.00 0.00
0.00 0.00 0.00 0.00 0.00 0.00 0.00 0.00 0.00 0.00 0.00 0.01 0.01 0.01 0.01 0.01 0.01 0.00 0.01 0.02 0.04 0.04 0.04 0.03 0.05 0.05 0.04 0.04 0.04 0.04 0.04 0.04 0.03 0.05 0.06 0.04 0.03 0.03 0.02 0.04 0.02 0.00 0.00
0.00 0.00 0.00 0.00 0.01 0.01 0.00 0.00 0.00 0.00 0.01 0.01 0.01 0.01 0.01 0.01 0.01 0.00 0.01 0.02 0.04 0.07 0.04 0.02 0.02 0.01 0.01 0.01 0.01 0.03 0.05 0.05 0.05 0.04 0.05 0.05 0.03 0.03 0.02 0.03 0.03 0.01 0.00
0.00 0.00 0.00 0.00 0.00 0.01 0.00 0.00 0.00 0.00 0.00 0.01 0.01 0.02 0.01 0.00 0.01 0.01 0.01 0.03 0.05 0.05 0.04 0.03 0.04 0.04 0.05 0.04 0.01 0.03 0.05 0.05 0.05 0.04 0.05 0.05 0.04 0.04 0.03 0.02 0.03 0.04 0.04
MSLP
1018.08 1018.22 1018.33 1018.43 1018.54 1018.66 1018.79 1018.91 1018.98 1018.99 1018.90 1018.71 1018.45 1018.14 1017.85 1017.62 1017.51 1017.53 1017.70 1017.99 1018.34 1018.72 1019.08 1019.38 1019.62 1019.79 1019.92 1020.05 1020.19 1020.36 1020.55 1020.76 1020.97 1021.15 1021.28 1021.37 1021.42 1021.45 1021.47 1021.50 1021.56 1021.64 1021.75
1017.94 1018.05 1018.16 1018.29 1018.44 1018.63 1018.84 1019.04 1019.19 1019.26 1019.22 1019.06 1018.81 1018.50 1018.18 1017.91 1017.75 1017.71 1017.82 1018.03 1018.32 1018.64 1018.95 1019.20 1019.40 1019.55 1019.67 1019.79 1019.93 1020.12 1020.34 1020.58 1020.82 1021.04 1021.20 1021.32 1021.38 1021.40 1021.41 1021.42 1021.46 1021.52 1021.61
1017.78 1017.88 1017.99 1018.15 1018.37 1018.64 1018.95 1019.25 1019.50 1019.66 1019.68 1019.58 1019.35 1019.04 1018.70 1018.39 1018.16 1018.06 1018.09 1018.23 1018.45 1018.69 1018.93 1019.13 1019.28 1019.39 1019.47 1019.57 1019.70 1019.88 1020.10 1020.36 1020.63 1020.88 1021.08 1021.22 1021.31 1021.35 1021.36 1021.37 1021.40 1021.46 1021.55
1017.61 1017.70 1017.82 1018.02 1018.30 1018.66 1019.06 1019.47 1019.82 1020.07 1020.18 1020.12 1019.93 1019.63 1019.27 1018.93 1018.66 1018.49 1018.45 1018.52 1018.67 1018.85 1019.02 1019.17 1019.26 1019.32 1019.36 1019.41 1019.51 1019.66 1019.87 1020.13 1020.41 1020.68 1020.91 1021.08 1021.20 1021.27 1021.31 1021.33 1021.37 1021.44 1021.54
1017.47 1017.55 1017.69 1017.92 1018.25 1018.67 1019.15 1019.64 1020.08 1020.41 1020.59 1020.59 1020.43 1020.15 1019.79 1019.43 1019.12 1018.91 1018.82 1018.83 1018.92 1019.05 1019.18 1019.28 1019.32 1019.34 1019.33 1019.34 1019.39 1019.50 1019.68 1019.91 1020.18 1020.46 1020.71 1020.91 1021.06 1021.16 1021.23 1021.28 1021.34 1021.42 1021.54
1017.42 1017.50 1017.65 1017.90 1018.26 1018.71 1019.23 1019.77 1020.26 1020.64 1020.86 1020.90 1020.77 1020.51 1020.16 1019.80 1019.48 1019.24 1019.12 1019.10 1019.16 1019.26 1019.36 1019.43 1019.45 1019.43 1019.39 1019.35 1019.36 1019.43 1019.56 1019.76 1020.01 1020.27 1020.52 1020.73 1020.90 1021.02 1021.11 1021.19 1021.27 1021.37 1021.49
1017.55 1017.65 1017.80 1018.05 1018.40 1018.84 1019.35 1019.88 1020.37 1020.76 1020.99 1021.05 1020.95 1020.70 1020.37 1020.01 1019.69 1019.46 1019.32 1019.29 1019.34 1019.43 1019.52 1019.59 1019.60 1019.58 1019.52 1019.47 1019.44 1019.47 1019.56 1019.72 1019.93 1020.16 1020.38 1020.58 1020.75 1020.87 1020.96 1021.05 1021.13 1021.23 1021.36
1017.95 1018.06 1018.21 1018.42 1018.73 1019.12 1019.58 1020.05 1020.49 1020.84 1021.06 1021.11 1021.01 1020.77 1020.46 1020.12 1019.81 1019.58 1019.44 1019.41 1019.46 1019.55 1019.65 1019.73 1019.76 1019.75 1019.71 1019.66 1019.62 1019.63 1019.69 1019.81 1019.97 1020.15 1020.33 1020.49 1020.62 1020.72 1020.79 1020.85 1020.92 1021.00 1021.11
1018.63 1018.75 1018.89 1019.06 1019.30 1019.61 1019.97 1020.35 1020.70 1020.98 1021.14 1021.16 1021.05 1020.82 1020.52 1020.20 1019.89 1019.67 1019.53 1019.50 1019.54 1019.63 1019.74 1019.84 1019.90 1019.93 1019.92 1019.89 1019.87 1019.88 1019.92 1020.00 1020.12 1020.24 1020.36 1020.46 1020.53 1020.58 1020.60 1020.62 1020.64 1020.68 1020.76
1019.55 1019.69 1019.80 1019.92 1020.08 1020.29 1020.54 1020.80 1021.05 1021.24 1021.33 1021.32 1021.18 1020.95 1020.66 1020.34 1020.04 1019.81 1019.66 1019.60 1019.62 1019.70 1019.81 1019.92 1020.00 1020.06 1020.10 1020.11 1020.13 1020.16 1020.20 1020.26 1020.33 1020.40 1020.45 1020.48 1020.48 1020.45 1020.40 1020.35 1020.32 1020.30 1020.32
1020.61 1020.75 1020.84 1020.91 1020.99 1021.10 1021.24 1021.39 1021.53 1021.63 1021.67 1021.61 1021.46 1021.23 1020.93 1020.62 1020.31 1020.06 1019.87 1019.77 1019.74 1019.78 1019.86 1019.95 1020.05 1020.14 1020.21 1020.28 1020.33 1020.39 1020.45 1020.50 1020.55 1020.57 1020.55 1020.51 1020.42 1020.32 1020.20 1020.08 1019.97 1019.90 1019.86
1021.67 1021.81 1021.88 1021.90 1021.92 1021.95 1022.00 1022.06 1022.12 1022.15 1022.13 1022.05 1021.89 1021.66 1021.37 1021.04 1020.72 1020.43 1020.19 1020.01 1019.91 1019.88 1019.90 1019.95 1020.03 1020.13 1020.23 1020.33 1020.43 1020.52 1020.60 1020.65 1020.68 1020.66 1020.59 1020.48 1020.34 1020.16 1019.97 1019.80 1019.64 1019.51 1019.43
1022.60 1022.73 1022.78 1022.78 1022.76 1022.73 1022.72 1022.73 1022.73 1022.72 1022.68 1022.58 1022.42 1022.20 1021.91 1021.58 1021.23 1020.89 1020.59 1020.33 1020.13 1020.00 1019.93 1019.92 1019.96 1020.03 1020.12 1020.24 1020.36 1020.48 1020.57 1020.64 1020.65 1020.61 1020.51 1020.36 1020.17 1019.95 1019.72 1019.51 1019.32 1019.16 1019.04
1023.32 1023.43 1023.47 1023.46 1023.43 1023.39 1023.35 1023.33 1023.31 1023.28 1023.23 1023.14 1022.98 1022.76 1022.48 1022.15 1021.78 1021.40 1021.02 1020.68 1020.38 1020.15 1019.97 1019.87 1019.83 1019.85 1019.92 1020.02 1020.14 1020.26 1020.36 1020.42 1020.43 1020.38 1020.27 1020.10 1019.89 1019.65 1019.42 1019.20 1019.00 1018.84 1018.71
1023.81 1023.91 1023.95 1023.95 1023.92 1023.89 1023.86 1023.83 1023.81 1023.78 1023.73 1023.64 1023.49 1023.28 1023.01 1022.67 1022.29 1021.87 1021.44 1021.02 1020.64 1020.30 1020.02 1019.82 1019.69 1019.63 1019.64 1019.69 1019.78 1019.88 1019.97 1020.02 1020.02 1019.96 1019.84 1019.67 1019.47 1019.25 1019.03 1018.84 1018.67 1018.53 1018.41
1024.12 1024.21 1024.26 1024.28 1024.28 1024.27 1024.26 1024.24 1024.22 1024.19 1024.13 1024.04 1023.89 1023.69 1023.42 1023.08 1022.70 1022.26 1021.80 1021.33 1020.88 1020.46 1020.09 1019.79 1019.56 1019.41 1019.33 1019.32 1019.35 1019.39 1019.44 1019.46 1019.44 1019.37 1019.25 1019.10 1018.92 1018.73 1018.55 1018.40 1018.27 1018.18 1018.10
1024.35 1024.44 1024.50 1024.56 1024.59 1024.61 1024.61 1024.60 1024.57 1024.52 1024.44 1024.33 1024.17 1023.96 1023.68 1023.36 1022.97 1022.54 1022.08 1021.59 1021.10 1020.63 1020.19 1019.81 1019.49 1019.24 1019.07 1018.96 1018.89 1018.86 1018.84 1018.81 1018.75 1018.66 1018.54 1018.40 1018.24 1018.09 1017.96 1017.86 1017.79 1017.74 1017.70
1024.59 1024.69 1024.78 1024.86 1024.92 1024.96 1024.97 1024.95 1024.90 1024.82 1024.70 1024.54 1024.34 1024.11 1023.83 1023.50 1023.14 1022.73 1022.28 1021.81 1021.32 1020.82 1020.34 1019.90 1019.50 1019.16 1018.88 1018.66 1018.49 1018.36 1018.25 1018.15 1018.04 1017.92 1017.78 1017.64 1017.50 1017.38 1017.28 1017.23 1017.20 1017.20 1017.20
1024.91 1025.02 1025.13 1025.24 1025.32 1025.36 1025.37 1025.33 1025.24 1025.10 1024.91 1024.70 1024.45 1024.18 1023.89 1023.57 1023.22 1022.85 1022.44 1022.00 1021.53 1021.04 1020.55 1020.06 1019.59 1019.16 1018.78 1018.46 1018.18 1017.94 1017.74 1017.55 1017.38 1017.21 1017.04 1016.88 1016.75 1016.63 1016.56 1016.52 1016.52 1016.54 1016.56
1025.30 1025.42 1025.55 1025.67 1025.76 1025.81 1025.79 1025.71 1025.57 1025.36 1025.11 1024.83 1024.53 1024.22 1023.91 1023.59 1023.27 1022.94 1022.58 1022.19 1021.75 1021.28 1020.79 1020.27 1019.76 1019.25 1018.78 1018.35 1017.97 1017.63 1017.33 1017.06 1016.82 1016.60 1016.39 1016.20 1016.05 1015.92 1015.84 1015.79 1015.79 1015.80 1015.82
1025.70 1025.83 1025.97 1026.10 1026.19 1026.23 1026.19 1026.07 1025.87 1025.60 1025.29 1024.94 1024.59 1024.24 1023.92 1023.61 1023.32 1023.02 1022.71 1022.36 1021.97 1021.53 1021.03 1020.50 1019.94 1019.38 1018.84 1018.32 1017.85 1017.43 1017.05 1016.71 1016.40 1016.13 1015.88 1015.66 1015.46 1015.30 1015.18 1015.10 1015.06 1015.04 1015.02
1026.04 1026.18 1026.32 1026.44 1026.53 1026.55 1026.49 1026.34 1026.10 1025.79 1025.42 1025.03 1024.64 1024.28 1023.94 1023.64 1023.36 1023.10 1022.82 1022.51 1022.15 1021.72 1021.23 1020.69 1020.10 1019.50 1018.90 1018.32 1017.79 1017.31 1016.87 1016.48 1016.14 1015.83 1015.54 1015.27 1015.04 1014.82 1014.65 1014.50 1014.39 1014.30 1014.23
1026.26 1026.38 1026.52 1026.64 1026.72 1026.73 1026.65 1026.48 1026.22 1025.88 1025.49 1025.08 1024.67 1024.29 1023.96 1023.66 1023.40 1023.16 1022.90 1022.60 1022.25 1021.83 1021.33 1020.77 1020.16 1019.53 1018.90 1018.30 1017.74 1017.23 1016.77 1016.37 1016.01 1015.67 1015.36 1015.06 1014.78 1014.51 1014.26 1014.04 1013.84 1013.67 1013.52
1026.31 1026.42 1026.55 1026.66 1026.73 1026.74 1026.66 1026.48 1026.22 1025.88 1025.48 1025.07 1024.66 1024.29 1023.95 1023.66 1023.40 1023.15 1022.89 1022.59 1022.23 1021.79 1021.28 1020.70 1020.08 1019.44 1018.80 1018.20 1017.65 1017.15 1016.71 1016.32 1015.97 1015.64 1015.32 1015.00 1014.68 1014.36 1014.04 1013.73 1013.44 1013.17 1012.92
1026.24 1026.34 1026.46 1026.57 1026.63 1026.64 1026.56 1026.39 1026.13 1025.80 1025.41 1025.01 1024.61 1024.24 1023.90 1023.60 1023.32 1023.05 1022.76 1022.43 1022.04 1021.57 1021.04 1020.45 1019.83 1019.19 1018.57 1018.00 1017.48 1017.03 1016.63 1016.28 1015.97 1015.67 1015.36 1015.04 1014.69 1014.33 1013.95 1013.56 1013.17 1012.81 1012.46
1026.12 1026.22 1026.34 1026.44 1026.51 1026.51 1026.44 1026.27 1026.02 1025.69 1025.32 1024.92 1024.52 1024.13 1023.78 1023.45 1023.14 1022.83 1022.50 1022.12 1021.68 1021.18 1020.62 1020.02 1019.40 1018.79 1018.21 1017.68 1017.22 1016.83 1016.50 1016.21 1015.95 1015.69 1015.41 1015.10 1014.74 1014.35 1013.92 1013.47 1013.02 1012.57 1012.14
Thickness
5734 5733 5731 5729 5730 5729 5727 5725 5727 5725 5724 5724 5724 5724 5724 5722 5721 5720 5716 5708 5703 5700 5698 5696 5694 5692 5690 5688 5687 5685 5683 5681 5680 5679 5677 5676 5675 5675 5674 5673 5672 5672 5671
5732 5730 5728 5726 5726 5725 5724 5723 5722 5720 5721 5720 5720 5719 5717 5718 5715 5712 5713 5707 5701 5698 5695 5693 5691 5689 5687 5685 5683 5681 5679 5677 5676 5674 5673 5672 5670 5669 5668 5668 5667 5666 5665
5728 5726 5727 5724 5723 5720 5718 5716 5716 5715 5715 5714 5714 5713 5712 5710 5710 5707 5707 5705 5701 5695 5692 5689 5687 5685 5683 5681 5679 5677 5675 5672 5671 5669 5668 5666 5665 5663 5662 5661 5660 5659 5659
5725 5722 5722 5721 5718 5715 5712 5711 5710 5709 5709 5708 5707 5707 5705 5702 5701 5700 5700 5699 5697 5695 5689 5685 5682 5680 5678 5676 5674 5672 5670 5668 5666 5664 5662 5660 5659 5657 5656 5655 5653 5652 5651
5722 5719 5718 5715 5712 5710 5707 5706 5703 5702 5700 5699 5699 5697 5696 5695 5693 5692 5692 5692 5690 5687 5686 5680 5676 5674 5671 5669 5668 5666 5664 5662 5660 5658 5656 5654 5652 5650 5649 5647 5646 5645 5644
5716 5714 5710 5708 5705 5702 5700 5697 5693 5691 5689 5688 5690 5688 5686 5686 5685 5684 5683 5682 5680 5679 5677 5675 5671 5668 5664 5662 5660 5658 5656 5654 5652 5650 5648 5646 5644 5642 5640 5639 5637 5636 5635
5710 5708 5705 5701 5697 5694 5691 5689 5686 5682 5681 5679 5679 5678 5678 5677 5677 5674 5673 5672 5671 5668 5666 5664 5662 5660 5658 5653 5650 5648 5646 5645 5643 5641 5639 5637 5635 5633 5631 5629 5627 5626 5624
5701 5700 5696 5693 5690 5686 5683 5682 5679 5676 5673 5671 5669 5668 5666 5667 5666 5666 5664 5662 5660 5659 5657 5655 5651 5648 5647 5644 5640 5637 5634 5632 5631 5629 5628 5626 5624 5622 5620 5618 5617 5615 5613
5691 5691 5687 5684 5681 5679 5675 5672 5670 5667 5665 5661 5659 5659 5658 5657 5658 5657 5653 5651 5648 5647 5645 5642 5639 5635 5633 5630 5627 5624 5621 5619 5617 5615 5614 5612 5611 5609 5608 5606 5604 5603 5601
5678 5677 5676 5672 5669 5666 5663 5661 5659 5657 5655 5653 5650 5648 5646 5645 5643 5643 5642 5639 5636 5633 5631 5629 5625 5621 5618 5615 5611 5608 5605 5603 5601 5599 5598 5597 5595 5594 5592 5591 5590 5588 5587
5666 5663 5661 5659 5655 5653 5650 5648 5646 5644 5643 5641 5640 5638 5635 5633 5631 5629 5627 5625 5623 5620 5617 5613 5610 5607 5603 5599 5596 5592 5588 5586 5584 5582 5580 5579 5577 5576 5575 5574 5574 5573 5572
5651 5649 5646 5644 5641 5638 5636 5634 5632 5630 5628 5626 5625 5623 5621 5619 5617 5615 5613 5611 5609 5606 5602 5598 5595 5592 5588 5585 5581 5575 5570 5568 5566 5564 5561 5560 5558 5558 5556 5556 5555 5555 5555
5638 5635 5633 5630 5627 5624 5622 5620 5618 5615 5613 5610 5608 5606 5605 5603 5601 5599 5598 5596 5593 5592 5587 5585 5581 5576 5572 5567 5563 5557 5554 5551 5547 5545 5542 5541 5540 5539 5538 5538 5537 5536 5536
5623 5620 5617 5615 5612 5610 5608 5606 5604 5600 5597 5595 5592 5589 5589 5588 5585 5582 5580 5578 5578 5577 5574 5569 5564 5557 5552 5547 5542 5538 5537 5534 5530 5526 5524 5522 5521 5520 5520 5520 5519 5519 5518
5609 5606 5603 5600 5597 5595 5592 5590 5587 5584 5582 5580 5578 5575 5573 5571 5568 5564 5561 5558 5555 5556 5555 5550 5544 5538 5532 5527 5523 5520 5518 5517 5513 5509 5507 5506 5504 5504 5503 5503 5503 5502 5502
5595 5592 5589 5586 5582 5579 5577 5575 5573 5568 5565 5563 5559 5556 5553 5553 5548 5545 5542 5539 5535 5532 5531 5529 5523 5520 5513 5508 5506 5504 5503 5500 5498 5497 5493 5491 5490 5489 5488 5488 5488 5487 5487
5582 5579 5575 5572 5568 5565 5561 5558 5556 5552 5549 5546 5542 5539 5535 5530 5529 5525 5522 5518 5514 5510 5509 5508 5504 5501 5496 5492 5491 5490 5489 5489 5490 5488 5483 5479 5477 5476 5476 5475 5475 5474 5474
5568 5563 5561 5558 5554 5550 5546 5543 5539 5536 5533 5529 5524 5520 5517 5513 5507 5505 5501 5498 5494 5489 5487 5487 5486 5484 5483 5480 5479 5477 5477 5479 5477 5476 5473 5470 5468 5467 5466 5465 5465 5464 5463
5553 5549 5547 5543 5539 5535 5531 5527 5523 5519 5515 5510 5506 5502 5498 5493 5489 5487 5481 5479 5477 5474 5471 5470 5471 5471 5471 5471 5469 5468 5469 5467 5467 5468 5466 5465 5463 5461 5459 5458 5458 5457 5455
5539 5536 5533 5529 5525 5521 5517 5513 5508 5504 5499 5494 5489 5485 5481 5476 5472 5468 5466 5463 5461 5458 5458 5457 5459 5461 5461 5461 5459 5460 5461 5461 5459 5459 5460 5459 5458 5457 5456 5454 5453 5451 5449
5527 5523 5520 5516 5512 5508 5500 5494 5492 5490 5485 5480 5475 5471 5467 5459 5453 5450 5449 5448 5447 5446 5447 5447 5449 5451 5452 5451 5450 5450 5450 5451 5453 5453 5453 5454 5454 5454 5453 5452 5449 5446 5443
5515 5512 5508 5504 5500 5493 5482 5477 5473 5474 5471 5467 5463 5460 5456 5452 5445 5440 5437 5435 5433 5435 5437 5437 5439 5440 5441 5441 5441 5441 5442 5443 5446 5447 5446 5448 5449 5449 5448 5447 5444 5440 5436
5504 5500 5497 5493 5488 5478 5469 5464 5461 5460 5461 5457 5453 5450 5448 5446 5439 5436 5434 5433 5433 5430 5428 5429 5432 5433 5434 5436 5435 5437 5437 5437 5438 5440 5440 5443 5444 5444 5444 5443 5438 5434 5431
5493 5490 5485 5481 5476 5468 5459 5455 5451 5454 5454 5449 5446 5442 5440 5437 5433 5427 5428 5432 5434 5434 5431 5430 5430 5430 5431 5431 5431 5432 5432 5433 5435 5438 5437 5438 5441 5440 5440 5438 5433 5430 5427
5483 5480 5476 5471 5466 5459 5450 5446 5443 5448 5448 5445 5442 5439 5435 5432 5425 5422 5424 5430 5434 5435 5434 5431 5429 5429 5428 5427 5426 5428 5431 5432 5435 5437 5434 5433 5434 5434 5435 5435 5431 5427 5424
5475 5472 5467 5462 5458 5453 5444 5439 5435 5442 5442 5440 5439 5437 5432 5428 5424 5422 5424 5430 5433 5434 5435 5435 5434 5433 5432 5432 5429 5427 5429 5430 5431 5432 5431 5427 5427 5426 5428 5431 5428 5425 5423